Regional Weather Roundup
Issued by NWS

Home | Current Version | Previous Version | Text Only | Print | Product List | Glossary On
Versions: 1 2 3 4 5 6 7 8 9 10 11 12 13 14 15 16 17 18 19 20 21 22 23 24 25 26 27 28 29 30 31 32 33 34 35 36 37 38 39 40 41 42 43 44 45 46 47 48 49 50
000
ASUS44 KLIX 042312
RWRLA
LOUISIANA WEATHER ROUNDUP
NATIONAL WEATHER SERVICE NEW ORLEANS LA
600 PM CDT FRI SEP 04 2015

NOTE: "FAIR" INDICATES FEW OR NO CLOUDS BELOW 12,000 FEET WITH NO
      SIGNIFICANT WEATHER AND/OR OBSTRUCTIONS TO VISIBILITY.
      SKY/WX - SKY CONDITION AND SIGNIFICANT WEATHER.
      TMP - AIR TEMPERATURE.    DP   - DEWPOINT TEMPERATURE.
      RH  - RELATIVE HUMIDITY.  PRES - PRESSURE.
      HX  - HEAT INDEX.         WCI  - WIND CHILL INDEX.

*  THESE STATIONS ARE NOT NWS OR FAA STATIONS AND ARE NOT UNDER
   NWS QUALITY CONTROL.

LAZ040-048-061>063-065-066-069-050000-
SOUTHEAST LOUISIANA

CITY           SKY/WX    TMP DP  RH WIND       PRES   REMARKS
N.O. AUDUBON     N/A     81  76  84 MISG        N/A
N.O. INTL ARPT PTSUNNY   81  71  71 S5        29.96F
N.O. LAKEFRONT MOSUNNY   84  72  67 SW7       29.96F
N.O. DOWNTOWN* FAIR      84  73  70 S6        29.98S
RESERVE*       FAIR      85  77  75 SE6       29.96S HX  96
SLIDELL        SUNNY     87  75  67 S9        29.95S HX  96
BATON ROUGE    MOSUNNY   87  75  67 SW8       29.95S HX  96
BOOTHVILLE     CLOUDY    79  72  79 SW9       29.97F
BELLE CHASSE   PTSUNNY   80  75  84 SW3       29.96F
BOGALUSA*      NOT AVBL
GALLIANO*      CLOUDY    82  76  81 CALM      29.97S
NEW ROADS*     FAIR      85  73  67 SW6       29.95R
GONZALES*      FAIR      87  76  69 SW6       29.95R HX  96
HAMMOND*       PTSUNNY   82  72  69 W5        29.97S
HOUMA*         MOSUNNY   81  77  89 CALM      29.97S
PORT FOURCHON* CLEAR     84  77  79 SW6       29.98S

$$

LAZ041-044-053-054-050000-
SOUTHWEST LOUISIANA

CITY           SKY/WX    TMP DP  RH WIND       PRES   REMARKS
LAKE CHARLES   MOSUNNY   85  74  69 S5        29.94R
LAFAYETTE      CLOUDY    83  76  79 S5        29.95F
PATTERSON      PTSUNNY   84  73  70 W8        29.97F
SALT POINT       N/A     86  76  71 SW3       29.94F HX  96
NEW IBERIA     CLOUDY    82  77  84 SE3       29.96F
CHENAULT AIRPK NOT AVBL

$$

LAZ027-028-050000-
CENTRAL LOUISIANA

CITY           SKY/WX    TMP DP  RH WIND       PRES   REMARKS
FORT POLK      PTSUNNY   86  72  64 S9        29.93S
ALEXANDRIA INT PTSUNNY   85  72  65 S9        29.92S
ALEXANDRIA     PTSUNNY   87  74  64 S10       29.94R HX  95

$$

LAZ001-002-050000-
NORTHWEST LOUISIANA

CITY           SKY/WX    TMP DP  RH WIND       PRES   REMARKS
SHREVEPORT     MOSUNNY   94  67  41 E8        29.90F HX  97
BARKSDALE AFB  SUNNY     95  66  37 SE7       29.90F HX  98
DTN SHREVEPORT SUNNY     94  66  39 E5        29.90F HX  97

$$

LAZ014-016-050000-
NORTHEAST LOUISIANA

CITY           SKY/WX    TMP DP  RH WIND       PRES   REMARKS
MONROE         CLOUDY    94  68  42 S5        29.92S HX  98
TALLULAH       PTSUNNY   94  70  45 N5        29.92S HX 100

$$



USA.gov is the U.S. government's official web portal to all federal, state and local government web resources and services.